Location: Newark
(44.9333°N, 0.5667°E)
Time: 15:52:42
(UTC+00:00)

N. Korean satellite - Pass Details

Date: 19 December 2019
Orbit: 454 x 508 km, 97.2° (Epoch: 17 January)

Event Time Altitude Azimuth Distance (km) Brightness Sun altitude
Rises 18:02:57 0° 209° (SSW) 2,587 11.0 -17.7°
Reaches altitude 10° 18:05:51 10° 235° (SW) 1,701 10.4 -18.2°
Maximum altitude 18:07:52 14° 269° (W) 1,457 10.0 -18.5°
Drops below altitude 10° 18:09:52 10° 302° (WNW) 1,695 9.9 -18.9°
Sets 18:12:47 0° 328° (NNW) 2,571 10.5 -19.4°
